RH
69 79 79 78 85 82 82 78 73 66 59 57 41 38 38 37 38 38 35 32 40 34 51 54 50 39 35 43 38 42 48 51 46 81 83 87 98 92 75 71 75 78 80 71 77 83 78
57 60 71 81 81 87 89 86 84 76 64 58 47 37 37 36 36 37 32 32 40 31 50 62 54 46 44 50 45 44 46 53 47 70 94 99 93 98 78 81 80 67 81 75 81 87 87
35 46 60 68 77 82 86 92 88 86 74 61 48 37 37 34 35 33 36 33 39 33 50 63 54 50 54 46 50 46 47 53 55 63 93 98 93 97 85 82 77 73 82 87 83 79 88
40 32 38 57 66 79 82 91 92 91 82 66 49 36 36 35 34 33 33 34 36 39 51 63 54 58 62 59 61 51 53 64 63 63 88 97 92 93 84 78 82 76 83 96 95 95 83
45 41 33 42 60 69 82 83 97 94 83 70 51 35 35 35 32 32 32 34 33 40 52 54 59 72 68 61 66 76 75 73 76 66 81 91 96 98 86 84 89 85 85 93 96 96 93
41 44 42 36 47 59 73 85 88 98 87 72 50 30 35 35 31 31 33 30 37 43 53 61 75 73 60 66 81 79 73 81 87 69 83 92 98 93 92 92 95 84 85 86 95 93 91
40 42 44 44 41 53 62 70 85 93 95 75 49 26 32 34 32 31 32 34 47 54 64 65 70 64 65 78 83 74 81 82 87 76 82 93 88 93 96 88 89 83 70 88 82 88 86
34 43 43 49 46 48 57 62 83 96 98 80 45 25 29 32 31 32 32 41 47 53 61 68 69 69 73 87 88 73 86 78 78 81 88 94 81 80 91 90 91 80 86 91 93 89 85
26 35 45 45 51 49 51 63 76 81 98 87 44 25 27 31 33 32 33 43 46 56 61 72 67 70 76 93 94 84 85 90 83 83 92 95 83 84 92 96 93 82 74 83 89 87 89
22 28 36 50 54 52 51 58 75 77 98 88 42 24 26 32 34 34 40 43 46 57 71 78 71 71 77 83 92 92 86 90 90 89 98 98 90 89 94 93 82 74 68 70 81 93 99
29 27 29 37 55 54 55 56 82 80 90 87 44 24 29 32 34 38 41 44 51 58 76 79 70 66 74 80 92 95 92 95 91 97 93 90 91 91 91 86 82 68 61 68 76 89 82
30 39 34 27 51 60 57 58 71 81 79 79 50 26 31 34 37 38 41 47 54 67 77 81 69 65 70 80 85 90 97 97 94 91 92 85 93 97 93 87 71 73 70 76 80 77 89
46 37 32 37 46 66 60 62 63 73 78 86 53 31 37 41 37 39 44 50 63 67 74 78 79 72 75 80 77 80 88 88 87 93 96 97 96 94 91 82 76 72 80 95 92 88 77
75 60 43 50 44 66 65 62 62 66 79 83 58 34 38 41 36 40 46 56 56 58 76 79 85 75 71 73 71 69 80 85 83 86 92 96 96 88 80 75 76 75 73 78 78 83 68
90 85 74 69 47 72 76 67 68 72 76 84 58 36 41 38 37 43 51 56 57 65 73 85 95 87 72 70 70 74 81 83 81 81 90 90 91 85 78 73 70 68 72 62 64 60 67
97 98 88 76 50 81 82 71 69 82 84 81 46 40 45 39 41 48 55 52 58 62 70 80 88 87 74 65 70 82 80 78 74 77 82 81 91 87 78 75 74 73 66 68 75 74 66
96 96 97 68 67 92 79 87 81 83 80 78 45 46 48 41 44 51 55 51 55 58 66 75 76 83 65 64 65 81 81 83 75 75 82 82 84 85 80 80 81 78 73 68 67 78 81
88 89 85 61 88 90 76 80 87 93 89 68 46 52 50 41 47 51 53 48 54 58 66 72 72 75 68 66 69 68 77 77 70 76 76 79 85 89 86 82 78 77 76 74 80 76 73
82 81 68 77 93 92 83 73 97 93 91 53 48 53 48 44 48 51 49 51 58 58 64 68 72 69 63 59 66 64 72 75 69 66 65 66 76 87 85 79 77 78 77 79 78 77 79
70 70 65 95 97 74 81 87 98 94 89 61 50 52 49 44 48 50 50 54 59 57 60 64 65 67 66 59 57 61 59 65 70 64 61 68 77 77 81 74 73 80 75 73 76 83 76
56 62 86 97 93 64 94 92 98 93 86 54 50 44 37 41 43 48 47 50 55 54 57 60 64 68 66 63 60 63 61 67 74 69 70 76 81 79 78 77 78 74 73 75 76 73 75
60 84 97 93 80 96 99 99 96 92 82 54 49 45 37 34 33 46 46 48 53 55 52 56 62 65 68 68 65 62 64 68 74 74 75 75 81 77 82 75 76 75 68 72 76 75 73
81 90 94 95 91 97 99 99 95 92 56 52 42 38 31 34 37 44 45 46 52 54 55 55 58 62 64 65 62 60 63 64 69 71 71 72 75 78 80 68 67 68 63 64 67 70 72
78 97 98 98 98 99 98 98 96 91 59 43 40 34 30 37 38 39 43 47 49 54 53 54 53 54 54 55 59 59 60 64 64 66 68 72 74 79 85 76 79 62 56 56 62 67 65
85 98 99 97 98 92 97 98 92 80 47 43 42 33 29 35 37 43 48 49 51 53 54 53 55 54 52 54 56 59 59 57 59 63 70 74 78 82 80 79 66 65 62 60 62 68 65
93 95 96 98 97 98 98 97 91 57 43 46 40 31 30 33 39 41 48 49 51 54 55 55 55 55 56 58 57 56 60 58 62 59 57 64 68 73 77 78 71 64 61 60 60 69 65
96 98 98 97 98 99 98 97 87 47 42 48 38 32 33 34 40 40 43 48 47 51 53 54 55 57 56 60 60 56 59 53 61 61 63 64 67 70 72 73 66 66 65 63 64 63 66
95 96 98 95 95 97 97 97 68 46 45 49 38 34 34 35 41 40 40 41 43 46 49 48 54 57 59 63 62 61 59 54 56 57 62 64 68 69 72 79 83 73 72 72 71 71 73
90 98 98 98 97 96 97 96 57 50 48 45 37 41 35 32 43 42 41 42 44 48 47 49 51 53 54 60 59 61 60 61 59 63 58 65 62 67 70 74 73 74 72 74 72 72 72